N2GWK Weather Reports


time (UTC)temp
C
wind
direction
speed
KPH
gust
KPH
rain 1hr
cm
rain 24hr
cm
rain mn
cm
humidity
%
barometer
mb
20260509064533 15 206 1.6 3.2 0.00 0.00 0.00 68 1009.8
20260509063531 15 199 1.6 6.4 0.00 0.00 0.00 69 1009.9
20260509062630 15 172 1.6 4.8 0.00 0.00 0.00 69 1009.9
20260509061527 15 190 3.2 4.8 0.00 0.00 0.00 68 1010.0
20260509060552 15 173 3.2 6.4 0.00 0.00 0.00 68 1010.1
20260509055517 15 0.0 0.0 0.00 0.00 0.00 68 1010.1
20260509054527 14 0.0 0.0 0.00 0.00 0.00 71 1010.1
20260509053550 15 0.0 0.0 0.00 0.00 0.00 72 1010.1
20260509052516 15 0.0 0.0 0.00 0.00 0.00 71 1009.9
20260509051552 15 0.0 0.0 0.00 0.00 0.00 70 1010.0
20260509050531 15 0.0 0.0 0.00 0.00 0.00 70 1010.0
20260509045553 15 0.0 0.0 0.00 0.00 0.00 71 1009.9
20260509044518 14 0.0 0.0 0.00 0.00 0.00 72 1009.8
20260509043529 14 0.0 0.0 0.00 0.00 0.00 73 1009.8
20260509042532 14 0.0 0.0 0.00 0.00 0.00 75 1010.1
20260509041518 14 0.0 0.0 0.00 0.00 0.00 75 1010.1
20260509040522 14 0.0 0.0 0.00 0.00 0.00 71 1010.2
20260509035545 14 0.0 0.0 0.00 0.00 0.00 70 1010.3
20260509034529 15 0.0 0.0 0.00 0.00 0.00 70 1010.3
20260509033526 15 0.0 0.0 0.00 0.00 0.00 66 1010.3
20260509032524 15 0.0 0.0 0.00 0.00 0.00 66 1010.6
20260509031521 16 0.0 0.0 0.00 0.00 0.00 64 1010.6
20260509030519 16 0.0 0.0 0.00 0.00 0.00 62 1010.7
20260509025517 16 0.0 0.0 0.00 0.00 0.00 63 1010.8
20260509024522 16 0.0 0.0 0.00 0.00 0.00 63 1010.8
20260509023520 16 0.0 0.0 0.00 0.00 0.00 63 1010.8
20260509022537 16 0.0 0.0 0.00 0.00 0.00 63 1010.8
20260509021520 16 0.0 0.0 0.00 0.00 0.00 61 1010.9
20260509020523 16 0.0 0.0 0.00 0.00 0.00 61 1010.8
20260509015548 16 0.0 0.0 0.00 0.00 0.00 60 1010.6
20260509014530 16 0.0 0.0 0.00 0.00 0.00 58 1010.8
20260509013516 17 0.0 0.0 0.00 0.00 0.00 57 1010.8
20260509012532 17 0.0 0.0 0.00 0.00 0.00 57 1010.8
20260509011545 17 186 1.6 4.8 0.00 0.00 0.00 55 1010.8
20260509010529 18 180 0.0 1.6 0.00 0.00 0.00 54 1010.8
20260509005533 18 205 1.6 6.4 0.00 0.00 0.00 53 1010.8
20260509004530 18 203 1.6 4.8 0.00 0.00 0.00 53 1010.5
20260509003515 19 180 1.6 4.8 0.00 0.00 0.00 52 1010.5
20260509002519 19 185 1.6 6.4 0.00 0.00 0.00 52 1010.5
20260509001517 20 185 3.2 6.4 0.00 0.00 0.00 51 1010.6
20260509000520 20 185 1.6 6.4 0.00 0.00 0.00 50 1010.6
20260508235518 21 0.0 6.4 0.00 0.00 0.00 50 1010.6
20260508234521 21 0.0 0.0 0.00 0.00 0.00 48 1010.6
20260508233524 22 0.0 0.0 0.00 0.00 0.00 47 1010.8
20260508232528 23 0.0 0.0 0.00 0.00 0.00 44 1011.0
20260508231526 23 183 1.6 9.7 0.00 0.00 0.00 43 1011.1
20260508230522 23 0.0 0.0 0.00 0.00 0.00 43 1011.2
20260508225521 24 147 1.6 8.0 0.00 0.00 0.00 42 1011.2
20260508224519 24 203 1.6 8.0 0.00 0.00 0.00 42 1011.0
20260508223518 24 0.0 0.0 0.00 0.00 0.00 43 1011.0
20260508222549 25 203 1.6 6.4 0.00 0.00 0.00 42 1011.0
20260508221526 23 158 1.6 6.4 0.00 0.00 0.00 44 1011.0
20260508220528 23 0.0 1.6 0.00 0.00 0.00 43 1010.9
20260508215607 24 167 1.6 6.4 0.00 0.00 0.00 43 1010.8
20260508214530 23 225 0.0 4.8 0.00 0.00 0.00 43 1011.3
20260508213547 23 223 3.2 9.7 0.00 0.00 0.00 43 1011.3
20260508212528 23 248 0.0 6.4 0.00 0.00 0.00 44 1011.6
20260508211525 22 220 3.2 6.4 0.00 0.00 0.00 45 1011.7
20260508210527 23 234 3.2 14.5 0.00 0.00 0.00 44 1011.8
20260508205530 23 0.0 4.8 0.00 0.00 0.00 44 1011.7
20260508204528 23 234 4.8 12.9 0.00 0.00 0.00 44 1011.8
20260508203551 23 218 3.2 12.9 0.00 0.00 0.00 44 1012.2
20260508202516 23 226 1.6 9.7 0.00 0.00 0.00 45 1012.1
20260508201519 22 0.0 0.0 0.00 0.00 0.00 46 1012.3
20260508200544 23 0.0 1.6 0.00 0.00 0.00 48 1012.4
20260508195526 23 234 3.2 11.3 0.00 0.00 0.00 45 1012.6
20260508194529 23 173 1.6 9.7 0.00 0.00 0.00 45 1012.8
20260508193555 23 0.0 4.8 0.00 0.00 0.00 45 1013.1
20260508192519 23 270 1.6 8.0 0.00 0.00 0.00 46 1013.2
20260508191517 23 225 1.6 8.0 0.00 0.00 0.00 46 1013.2
20260508190520 23 188 1.6 4.8 0.00 0.00 0.00 49 1013.1
20260508185524 23 203 1.6 6.4 0.00 0.00 0.00 49 1013.1
20260508184520 23 0.0 0.0 0.00 0.00 0.00 46 1013.2
20260508183518 23 311 1.6 9.7 0.00 0.00 0.00 48 1013.3
20260508182517 23 0.0 3.2 0.00 0.00 0.00 48 1013.7
20260508181532 23 186 1.6 6.4 0.00 0.00 0.00 47 1013.9
20260508180518 22 198 3.2 8.0 0.00 0.00 0.00 46 1013.9
20260508175517 22 201 3.2 8.0 0.00 0.00 0.00 49 1013.8
20260508174520 22 251 1.6 6.4 0.00 0.00 0.00 47 1014.1
20260508173543 22 216 3.2 8.0 0.00 0.00 0.00 47 1014.4
20260508172528 22 248 1.6 6.4 0.00 0.00 0.00 49 1014.7
20260508171525 22 188 4.8 9.7 0.00 0.00 0.00 49 1014.9
20260508170545 22 242 1.6 4.8 0.00 0.00 0.00 48 1015.1
20260508165521 22 195 3.2 6.4 0.00 0.00 0.00 50 1015.4
20260508164600 22 239 3.2 8.0 0.00 0.00 0.00 51 1015.6
20260508163523 21 219 1.6 6.4 0.00 0.00 0.00 52 1015.9
20260508162526 22 164 3.2 6.4 0.00 0.00 0.00 52 1016.2
20260508161531 21 204 3.2 6.4 0.00 0.00 0.00 51 1016.2
20260508160516 22 203 3.2 6.4 0.00 0.00 0.00 50 1016.3
20260508155532 20 233 4.8 8.0 0.00 0.00 0.00 54 1016.4
20260508154519 20 158 3.2 4.8 0.00 0.00 0.00 55 1016.6
20260508153523 20 150 4.8 6.4 0.00 0.00 0.00 54 1016.7
20260508152526 19 147 3.2 4.8 0.00 0.00 0.00 55 1016.8
20260508151529 19 219 4.8 6.4 0.00 0.00 0.00 56 1016.8
20260508150615 18 194 4.8 8.0 0.00 0.00 0.00 55 1016.9
20260508145517 18 205 3.2 8.0 0.00 0.00 0.00 56 1017.0
20260508144528 17 203 4.8 11.3 0.00 0.00 0.00 57 1017.0
20260508143520 17 173 4.8 8.0 0.00 0.00 0.00 59 1017.1
20260508142522 16 190 3.2 4.8 0.00 0.00 0.00 64 1017.0
20260508141520 15 204 4.8 9.7 0.00 0.00 0.00 67 1017.0
20260508140518 14 270 1.6 6.4 0.00 0.00 0.00 70 1016.9
20260508135521 13 158 3.2 6.4 0.00 0.00 0.00 72 1016.9
20260508134539 12 167 3.2 6.4 0.00 0.00 0.00 72 1017.0
20260508133537 12 189 3.2 6.4 0.00 0.00 0.00 74 1017.0
20260508132534 11 0.0 0.0 0.00 0.00 0.00 78 1017.0
20260508131553 10 0.0 0.0 0.00 0.00 0.00 80 1017.1
20260508130516 9 0.0 0.0 0.00 0.00 0.00 84 1017.0
20260508125532 9 0.0 0.0 0.00 0.00 0.00 85 1017.0
20260508124517 8 0.0 0.0 0.00 0.00 0.00 89 1017.0
20260508123520 8 0.0 0.0 0.00 0.00 0.00 89 1017.1
20260508122518 7 0.0 0.0 0.00 0.00 0.00 90 1016.6
20260508121521 -17 0.0 0.0 0.00 0.00 0.00 1016.5
20260508120519 -17 0.0 0.0 0.00 0.00 0.00 1016.4
20260508115522 -17 0.0 0.0 0.00 0.00 0.00 1016.4
20260508114527 -17 0.0 0.0 0.00 0.00 0.00 1016.3
20260508113525 -17 0.0 0.0 0.00 0.00 0.00 1016.3
20260508112524 -17 0.0 0.0 0.00 0.00 0.00 1016.1
20260508111524 -17 0.0 0.0 0.00 0.00 0.00 1015.9
20260508110520 -17 0.0 0.0 0.00 0.00 0.00 1015.8
20260508105518 -17 0.0 0.0 0.00 0.00 0.00 1015.7
20260508104521 -17 0.0 0.0 0.00 0.00 0.00 1015.7
20260508103519 -17 0.0 0.0 0.00 0.00 0.00 1015.7
20260508102523 -17 0.0 0.0 0.00 0.00 0.00 1015.7
20260508101526 -17 0.0 0.0 0.00 0.00 0.00 1015.7
20260508100523 -17 0.0 0.0 0.00 0.00 0.00 1015.8
20260508095520 -17 0.0 0.0 0.00 0.00 0.00 1015.9
20260508094519 -17 0.0 0.0 0.00 0.00 0.00 1015.9
20260508093533 -17 0.0 0.0 0.00 0.00 0.00 1015.7
20260508092519 -17 0.0 0.0 0.00 0.00 0.00 1015.7
20260508091522 -17 0.0 0.0 0.00 0.00 0.00 1015.7
20260508090546 -17 0.0 0.0 0.00 0.00 0.00 1015.7
20260508085519 -17 0.0 0.0 0.00 0.00 0.00 1015.7
20260508084524 -17 0.0 0.0 0.00 0.00 0.00 1015.7
20260508083527 -17 0.0 0.0 0.00 0.00 0.00 1015.9
20260508082529 -17 0.0 0.0 0.00 0.00 0.00 1015.9
20260508081553 -17 0.0 0.0 0.00 0.00 0.00 1015.9
20260508080525 -17 0.0 0.0 0.00 0.00 0.00 1015.9
20260508075549 -17 0.0 0.0 0.00 0.00 0.00 1015.9
20260508074532 -17 0.0 0.0 0.00 0.00 0.00 1015.9
20260508073517 -17 0.0 0.0 0.00 0.00 0.00 1015.9
20260508072533 -17 0.0 0.0 0.00 0.00 0.00 1015.9
20260508071520 -17 0.0 0.0 0.00 0.00 0.00 1015.8
20260508070521 -17 0.0 0.0 0.00 0.00 0.00 1015.8
20260508065524 -17 0.0 0.0 0.00 0.00 0.00 1015.9